This is the latest recevied weather packets stored in our database for station/object S51UL-6. If no packets are shown the sender has not sent any weather packets the latest 10 day(s).
| Time | Temp. | Humidity | Pressure | Rain* | Wind** | Luminosity | Snow |
|---|---|---|---|---|---|---|---|
| 1777728558 | 25.56° C | 32% | 1022.4 hPa | 0 mm | - | - | - |
| 1777728259 | 25.56° C | 32% | 1022.5 hPa | 0 mm | - | - | - |
| 1777727959 | 26.11° C | 32% | 1022.5 hPa | 0 mm | - | - | - |
| 1777727659 | 26.11° C | 32% | 1022.7 hPa | 0 mm | - | - | - |
| 1777727359 | 26.67° C | 32% | 1022.5 hPa | 0 mm | - | - | - |
| 1777727059 | 26.11° C | 32% | 1022.7 hPa | 0 mm | - | - | - |
| 1777726759 | 26.11° C | 32% | 1022.8 hPa | 0 mm | - | - | - |
| 1777726159 | 26.11° C | 32% | 1022.8 hPa | 0 mm | - | - | - |
| 1777725859 | 25.56° C | 32% | 1022.8 hPa | 0 mm | - | - | - |
| 1777725559 | 25.56° C | 31% | 1022.8 hPa | 0 mm | - | - | - |
| 1777724959 | 26.11° C | 32% | 1023 hPa | 0 mm | - | - | - |
| 1777724659 | 25.56° C | 31% | 1023.1 hPa | 0 mm | - | - | - |
| 1777724359 | 26.11° C | 31% | 1023.1 hPa | 0 mm | - | - | - |
| 1777724059 | 25.56° C | 32% | 1023.3 hPa | 0 mm | - | - | - |
| 1777723759 | 25.56° C | 32% | 1023.3 hPa | 0 mm | - | - | - |
| 1777723460 | 25.56° C | 31% | 1023.5 hPa | 0 mm | - | - | - |
| 1777723159 | 26.67° C | 30% | 1023.4 hPa | 0 mm | - | - | - |
| 1777722560 | 27.22° C | 30% | 1023.6 hPa | 0 mm | - | - | - |
| 1777722260 | 27.78° C | 30% | 1023.5 hPa | 0 mm | - | - | - |
| 1777721960 | 27.78° C | 30% | 1023.8 hPa | 0 mm | - | - | - |
| 1777721660 | 27.78° C | 29% | 1023.7 hPa | 0 mm | - | - | - |
| 1777721360 | 28.33° C | 29% | 1023.7 hPa | 0 mm | - | - | - |
| 1777721060 | 28.33° C | 30% | 1023.6 hPa | 0 mm | - | - | - |
| 1777720760 | 27.78° C | 31% | 1023.8 hPa | 0 mm | - | - | - |
| 1777720461 | 27.78° C | 30% | 1023.7 hPa | 0 mm | - | - | - |
* Rain latest hour (hover to see other rain measurements)
** Current wind speed in m/s (hover to see current wind gust speed)